Simultaneous Nadir Overpasses (SNOs) Predictions

Prediction of SNOs between GOES-16 and LANDSAT-8 Satellite Orbit:

Table of predicted SNOs for the next 14.0 days since TLE Epoch: 2/18/2023
Index Date Time (GOES-16) GOES-16 Lat,Lon LANDSAT-8 Lat,Lon Distance(km) Time Diff (sec)
1 02/18/2023 02:58:47 -0.03, -75.18 0.73, -71.73 393.31 11
2 02/18/2023 15:21:33 0.04, -75.20 0.37, -76.88 191.01 80
3 02/20/2023 15:06:39 0.04, -75.21 -0.25, -73.92 147.50 80
4 02/21/2023 03:30:42 -0.04, -75.20 -0.88, -79.10 443.47 80
5 02/22/2023 14:54:25 0.04, -75.24 -0.90, -70.96 487.08 80
6 02/23/2023 03:18:28 -0.04, -75.23 -0.23, -76.14 103.68 80
7 02/25/2023 03:03:33 -0.04, -75.26 0.39, -73.17 236.87 80
8 02/25/2023 15:27:28 0.04, -75.28 0.68, -78.33 346.76 80
9 02/27/2023 15:12:33 0.04, -75.31 0.03, -75.37 5.91 80
10 03/01/2023 15:00:17 0.03, -75.35 -0.59, -72.39 336.28 80
11 03/02/2023 03:24:20 -0.04, -75.35 -0.51, -77.58 253.85 80
